period_start,C,m1,H,J0,J1,J2,J3,J4,J5,JA,JB,JC,JD,JJ,JK,JN,#
2017-09-21 00:01:16,-0.01,0.23,0.00,19.21,23.12,25.77,14.04,44.23,1007.25,2050.09,3455.87,3058.71,3503.79,600.11,598.38,26.31,0000 0000 0000 0000 000000
2017-09-21 00:06:17,0.01,0.23,0.00,19.21,23.12,25.78,13.94,44.27,1007.29,2050.08,3455.80,3058.56,3503.60,599.87,598.15,26.36,0000 0000 0000 0000 000000
2017-09-21 00:11:19,0.00,0.23,0.00,19.20,23.12,25.78,13.90,44.21,1007.34,2050.09,3455.72,3058.62,3503.63,599.74,598.16,26.41,0000 0000 0000 0000 000000
2017-09-21 00:16:20,0.01,0.23,0.00,19.21,23.12,25.76,13.95,44.26,1007.34,2050.13,3455.64,3058.56,3503.49,599.84,597.82,26.46,0000 0000 0000 0000 000000
2017-09-21 00:21:21,-0.00,0.23,0.00,19.22,23.12,25.81,13.95,44.26,1007.33,2050.09,3455.49,3058.43,3503.44,600.04,598.22,26.51,0000 0000 0000 0000 000000
2017-09-21 00:26:23,0.01,0.23,0.00,19.22,23.12,25.85,13.98,44.18,1007.34,2050.11,3455.40,3058.37,3503.34,599.93,598.30,26.56,0000 0000 0000 0000 000000
2017-09-21 00:31:24,0.00,0.23,0.00,19.21,23.12,25.82,14.00,44.23,1007.34,2050.07,3455.28,3058.25,3503.20,600.44,598.68,26.61,0000 0000 0000 0000 000000
2017-09-21 00:36:25,0.01,0.23,0.00,19.21,23.12,25.82,14.00,44.25,1007.34,2050.05,3455.09,3058.13,3503.09,600.09,598.32,26.66,0000 0000 0000 0000 000000
2017-09-21 00:41:27,0.00,0.23,0.00,19.21,23.12,25.79,13.98,44.24,1007.34,2050.06,3455.03,3058.10,3503.03,600.03,598.26,26.71,0000 0000 0000 0000 000000
2017-09-21 00:46:28,0.00,0.23,0.00,19.22,23.12,25.79,14.04,44.28,1007.34,2050.13,3455.02,3058.07,3503.03,600.01,598.26,26.76,0000 0000 0000 0000 000000
2017-09-21 00:51:29,0.00,0.23,0.00,19.22,23.12,25.79,13.94,44.21,1007.36,2050.15,3455.00,3058.05,3503.03,600.29,598.40,26.81,0000 0000 0000 0000 000000
2017-09-21 00:56:30,-0.00,0.23,0.00,19.21,23.12,25.81,14.03,44.32,1007.43,2050.17,3455.00,3058.04,3503.03,600.25,598.47,26.86,0000 0000 0000 0000 000000
2017-09-21 01:01:31,0.02,0.23,0.00,19.22,23.12,25.81,13.98,44.17,1007.53,2050.45,3455.00,3058.09,3503.04,599.99,598.26,26.91,0000 0000 0000 0000 000000
2017-09-21 01:06:32,0.02,0.23,0.00,19.22,23.12,25.78,14.03,44.27,1007.57,2050.51,3455.00,3058.05,3503.02,600.26,598.69,26.96,0000 0000 0000 0000 000000
2017-09-21 01:11:34,0.00,0.23,0.00,19.22,23.12,25.81,14.02,44.30,1007.73,2050.60,3454.99,3058.02,3503.01,600.09,598.54,27.01,0000 0000 0000 0000 000000
2017-09-21 01:16:35,0.01,0.23,0.00,19.21,23.11,25.80,13.94,44.21,1007.81,2050.59,3454.99,3058.02,3503.00,600.09,598.60,27.06,0000 0000 0000 0000 000000
2017-09-21 01:21:36,-0.02,0.23,0.00,19.20,23.11,25.83,13.97,44.20,1007.83,2050.58,3454.98,3058.01,3503.00,600.32,598.83,27.11,0000 0000 0000 0000 000000
2017-09-21 01:26:38,0.01,0.23,0.00,19.20,23.10,25.81,13.93,44.17,1007.83,2050.62,3454.98,3058.01,3503.00,599.87,598.42,27.16,0000 0000 0000 0000 000000
2017-09-21 01:31:39,0.00,0.23,0.00,19.21,23.10,25.81,13.95,44.27,1007.83,2050.71,3454.95,3058.00,3503.00,599.96,598.56,27.21,0000 0000 0000 0000 000000
2017-09-21 01:36:40,0.01,0.23,0.00,19.21,23.10,25.76,13.89,44.18,1007.83,2050.78,3454.96,3058.02,3503.00,600.08,598.60,27.26,0000 0000 0000 0000 000000
2017-09-21 01:41:41,-0.01,0.23,0.00,19.21,23.10,25.81,13.96,44.67,1007.83,2050.68,3454.80,3058.01,3503.00,599.77,598.33,27.31,0000 0000 0000 0000 000000
2017-09-21 01:46:43,0.01,0.23,0.00,19.22,23.10,25.79,13.99,44.29,1007.83,2050.77,3454.80,3058.00,3502.99,599.92,598.39,27.36,0000 0000 0000 0000 000000
2017-09-21 01:51:44,0.00,0.23,0.00,19.24,23.10,25.82,14.00,44.34,1007.84,2050.89,3454.83,3058.01,3503.00,600.53,598.94,27.41,0000 0000 0000 0000 000000
2017-09-21 01:56:45,-0.00,0.23,0.00,19.24,23.10,25.83,13.95,44.27,1007.88,2050.72,3454.34,3058.00,3502.98,599.66,598.17,27.46,0000 0000 0000 0000 000000
2017-09-21 02:01:46,0.01,0.23,0.00,19.25,23.10,25.84,13.94,44.27,1008.03,2050.87,3454.33,3058.00,3502.98,600.29,598.83,27.51,0000 0000 0000 0000 000000
2017-09-21 02:06:48,0.00,0.23,0.00,19.26,23.10,25.84,14.00,44.33,1008.20,2050.88,3454.20,3058.00,3502.98,600.59,599.20,27.56,0000 0000 0000 0000 000000
2017-09-21 02:11:49,-0.01,0.23,0.00,19.27,23.10,25.79,14.02,44.58,1008.26,2050.75,3454.04,3058.00,3502.96,600.29,598.92,27.61,0000 0000 0000 0000 000000
2017-09-21 02:16:50,-0.01,0.23,0.00,19.27,23.11,25.79,13.98,44.31,1008.30,2050.72,3454.04,3058.00,3502.98,599.92,598.79,27.66,0000 0000 0000 0000 000000
2017-09-21 02:21:52,0.02,0.23,0.00,19.26,23.12,25.83,13.98,44.22,1008.31,2050.80,3454.02,3057.99,3502.96,600.02,598.74,27.71,0000 0000 0000 0000 000000
2017-09-21 02:26:53,-0.00,0.23,0.00,19.29,23.12,25.85,13.96,44.17,1008.31,2050.78,3454.03,3057.99,3502.95,599.71,598.42,27.76,0000 0000 0000 0000 000000
2017-09-21 02:31:54,0.00,0.23,0.00,19.27,23.12,25.83,13.85,44.17,1008.31,2050.86,3454.03,3057.99,3502.94,599.13,597.94,27.81,0000 0000 0000 0000 000000
2017-09-21 02:36:55,-0.01,0.23,0.00,19.28,23.12,25.81,13.99,44.19,1008.31,2050.71,3454.01,3057.99,3502.88,600.27,598.90,27.86,0000 0000 0000 0000 000000
2017-09-21 02:41:56,0.01,0.23,0.00,19.28,23.12,25.83,14.04,44.11,1008.32,2050.76,3454.01,3057.98,3502.82,600.23,599.09,27.91,0000 0000 0000 0000 000000
2017-09-21 02:46:57,-0.04,0.23,0.00,19.29,23.12,25.84,14.00,44.22,1008.34,2050.39,3454.01,3057.98,3502.64,600.24,598.82,27.96,0000 0000 0000 0000 000000
2017-09-21 02:51:59,-0.00,0.23,0.00,19.32,23.12,25.83,13.95,44.38,1008.37,2050.16,3454.01,3057.98,3502.40,600.19,598.75,28.01,0000 0000 0000 0000 000000
2017-09-21 02:57:00,-0.02,0.23,0.00,19.30,23.12,25.84,13.94,44.27,1008.55,2050.06,3454.26,3057.99,3502.57,599.83,598.63,28.06,0000 0000 0000 0000 000000
2017-09-21 03:02:01,0.01,0.23,0.00,19.29,23.13,25.88,13.98,44.29,1008.71,2050.03,3454.45,3057.98,3502.33,599.91,598.79,28.11,0000 0000 0000 0000 000000
2017-09-21 03:07:03,0.00,0.23,0.00,19.30,23.13,25.85,13.94,44.27,1008.78,2050.01,3454.15,3057.97,3502.06,600.03,598.80,28.16,0000 0000 0000 0000 000000
2017-09-21 03:12:04,0.00,0.23,0.00,19.30,23.14,25.84,13.96,44.23,1008.80,2050.00,3454.02,3057.98,3502.03,600.02,598.95,28.21,0000 0000 0000 0000 000000
2017-09-21 03:17:05,0.00,0.23,0.00,19.32,23.14,25.87,14.02,44.25,1008.80,2050.00,3454.02,3057.96,3502.01,600.12,599.01,28.26,0000 0000 0000 0000 000000
2017-09-21 03:22:07,0.00,0.23,0.00,19.32,23.14,25.87,13.99,44.34,1008.81,2050.00,3454.01,3057.94,3502.01,600.05,599.00,28.31,0000 0000 0000 0000 000000
2017-09-21 03:27:08,0.00,0.23,0.00,19.33,23.14,25.83,13.98,44.33,1008.84,2050.00,3454.00,3057.90,3502.00,599.47,598.40,28.36,0000 0000 0000 0000 000000
2017-09-21 03:32:09,0.00,0.23,0.00,19.33,23.14,25.87,14.00,44.27,1008.91,2050.01,3454.00,3057.94,3502.00,599.87,598.80,28.41,0000 0000 0000 0000 000000
2017-09-21 03:37:10,0.00,0.23,0.00,19.34,23.14,25.88,13.98,44.24,1009.12,2050.00,3453.99,3057.81,3501.98,600.05,599.27,28.46,0000 0000 0000 0000 000000
2017-09-21 03:42:11,0.02,0.23,0.00,19.34,23.14,25.88,14.01,44.26,1009.22,2050.00,3453.97,3057.42,3501.93,599.93,598.96,28.51,0000 0000 0000 0000 000000
2017-09-21 03:47:13,0.00,0.23,0.00,19.33,23.14,25.87,13.92,44.29,1009.28,2050.00,3453.95,3057.11,3501.72,599.59,598.71,28.56,0000 0000 0000 0000 000000
2017-09-21 03:52:14,0.01,0.23,0.00,19.34,23.15,25.88,13.94,44.33,1009.29,2050.00,3453.80,3057.14,3501.39,600.01,599.17,28.61,0000 0000 0000 0000 000000
2017-09-21 03:57:16,0.01,0.23,0.00,19.34,23.15,25.89,14.04,44.31,1009.30,2050.00,3453.12,3057.04,3501.06,600.06,599.11,28.66,0000 0000 0000 0000 000000
2017-09-21 04:02:17,0.00,0.23,0.00,19.34,23.15,25.85,14.01,44.67,1009.31,2049.99,3453.03,3057.02,3501.01,600.56,599.75,28.71,0000 0000 0000 0000 000000
2017-09-21 04:07:18,0.00,0.23,0.00,19.34,23.15,25.88,13.95,44.62,1009.47,2049.99,3453.02,3057.02,3501.01,600.01,599.20,28.76,0000 0000 0000 0000 000000
2017-09-21 04:12:20,0.00,0.23,0.00,19.34,23.16,25.87,14.07,44.62,1009.67,2049.99,3453.00,3057.03,3501.00,600.37,599.65,28.81,0000 0000 0000 0000 000000
2017-09-21 04:17:21,0.00,0.23,0.00,19.34,23.17,25.90,13.96,44.66,1009.77,2049.99,3453.00,3057.02,3501.00,599.77,599.16,28.86,0000 0000 0000 0000 000000
2017-09-21 04:22:22,0.00,0.23,0.00,19.35,23.17,25.91,13.97,44.36,1009.77,2049.99,3453.00,3057.02,3501.00,600.26,599.74,28.91,0000 0000 0000 0000 000000
2017-09-21 04:27:24,0.00,0.23,0.00,19.35,23.17,25.88,13.92,44.31,1009.78,2049.99,3453.00,3057.03,3500.99,599.63,598.87,28.96,0000 0000 0000 0000 000000
2017-09-21 04:32:25,0.00,0.23,0.00,19.35,23.17,25.88,13.96,44.63,1009.78,2049.98,3453.00,3057.02,3500.96,600.08,599.46,29.01,0000 0000 0000 0000 000000
2017-09-21 04:37:26,0.00,0.23,0.00,19.34,23.17,25.92,13.91,44.86,1009.78,2049.95,3452.99,3057.02,3500.75,599.28,598.75,29.06,0000 0000 0000 0000 000000
2017-09-21 04:42:27,-0.01,0.23,0.00,19.35,23.17,25.87,13.98,44.72,1009.80,2049.84,3452.98,3057.00,3500.25,600.15,599.41,29.11,0000 0000 0000 0000 000000
2017-09-21 04:47:28,0.00,0.23,0.00,19.36,23.17,25.89,13.95,44.54,1009.89,2049.90,3452.95,3057.01,3500.14,599.89,599.25,29.16,0000 0000 0000 0000 000000
2017-09-21 04:52:30,-0.00,0.23,0.00,19.36,23.17,25.92,14.00,44.45,1010.11,2049.85,3452.97,3057.00,3500.08,600.24,599.72,29.21,0000 0000 0000 0000 000000
2017-09-21 04:57:31,-0.00,0.23,0.00,19.37,23.17,25.91,14.00,44.73,1010.25,2049.66,3452.66,3057.00,3500.02,600.08,599.70,29.26,0000 0000 0000 0000 000000
2017-09-21 05:02:32,0.00,0.23,0.00,19.37,23.18,25.92,14.06,44.75,1010.27,2049.64,3452.18,3057.00,3500.00,600.41,600.08,29.31,0000 0000 0000 0000 000000
2017-09-21 05:07:33,-0.00,0.23,0.00,19.36,23.19,25.88,14.00,44.62,1010.27,2049.55,3452.02,3057.00,3500.00,599.30,599.08,29.36,0000 0000 0000 0000 000000
2017-09-21 05:12:34,-0.03,0.23,0.00,19.37,23.19,25.88,13.93,44.72,1010.27,2049.41,3452.01,3056.99,3499.99,600.12,599.86,29.41,0000 0000 0000 0000 000000
2017-09-21 05:17:36,0.02,0.23,0.00,19.37,23.19,25.86,13.95,44.30,1010.27,2049.51,3452.00,3056.99,3499.99,599.79,599.49,29.46,0000 0000 0000 0000 000000
2017-09-21 05:22:37,-0.00,0.23,0.00,19.37,23.19,25.88,14.00,44.42,1010.27,2049.56,3452.01,3056.99,3499.99,600.27,599.87,29.52,0000 0000 0000 0000 000000
2017-09-21 05:27:38,-0.03,0.23,0.00,19.37,23.19,25.86,14.07,45.04,1010.27,2049.31,3452.00,3056.98,3499.92,600.38,600.11,29.57,0000 0000 0000 0000 000000
2017-09-21 05:32:39,0.00,0.23,0.00,19.37,23.19,25.94,13.95,44.83,1010.28,2049.25,3451.99,3056.99,3499.73,599.87,599.56,29.62,0000 0000 0000 0000 000000
2017-09-21 05:37:40,0.01,0.23,0.00,19.37,23.19,25.92,13.94,44.57,1010.28,2049.27,3451.99,3056.98,3499.51,599.74,599.35,29.67,0000 0000 0000 0000 000000
2017-09-21 05:42:42,0.00,0.23,0.00,19.37,23.19,25.90,13.96,44.57,1010.37,2049.25,3451.98,3056.99,3499.35,599.74,599.42,29.72,0000 0000 0000 0000 000000
2017-09-21 05:47:43,-0.01,0.23,0.00,19.38,23.19,25.90,14.00,44.60,1010.40,2049.10,3451.97,3056.99,3499.09,600.35,600.06,29.77,0000 0000 0000 0000 000000
2017-09-21 05:52:44,-0.00,0.23,0.00,19.38,23.19,25.91,14.00,44.71,1010.63,2049.05,3451.90,3056.98,3499.03,599.92,599.71,29.82,0000 0000 0000 0000 000000
2017-09-21 05:57:45,0.00,0.23,0.00,19.37,23.19,25.94,14.02,44.55,1010.75,2049.03,3451.83,3056.99,3499.01,600.06,599.89,29.87,0000 0000 0000 0000 000000
2017-09-21 06:02:46,0.00,0.23,0.00,19.37,23.20,25.93,13.98,44.58,1010.76,2049.03,3451.80,3056.98,3499.02,599.76,599.84,29.92,0000 0000 0000 0000 000000
2017-09-21 06:07:48,-0.00,0.23,0.00,19.37,23.20,25.90,14.00,44.76,1010.76,2049.04,3451.69,3056.98,3499.00,600.30,600.25,29.97,0000 0000 0000 0000 000000
2017-09-21 06:12:49,0.00,0.23,0.00,19.37,23.20,25.90,14.04,44.64,1010.77,2049.04,3451.41,3056.98,3499.00,600.18,600.12,30.02,0000 0000 0000 0000 000000
2017-09-21 06:17:50,-0.00,0.23,0.00,19.37,23.20,25.91,14.09,44.89,1010.77,2049.02,3451.47,3056.99,3499.00,600.60,600.42,30.07,0000 0000 0000 0000 000000
2017-09-21 06:22:52,0.01,0.23,0.00,19.37,23.20,25.94,14.06,45.00,1010.76,2049.02,3451.15,3056.98,3499.00,600.12,600.10,30.12,0000 0000 0000 0000 000000
2017-09-21 06:27:53,0.00,0.23,0.00,19.37,23.20,25.93,14.07,44.93,1010.77,2049.02,3451.04,3056.96,3498.99,600.18,600.11,30.17,0000 0000 0000 0000 000000
2017-09-21 06:32:55,-0.00,0.23,0.00,19.37,23.20,25.89,14.01,44.92,1010.79,2049.01,3451.01,3056.96,3498.98,599.74,599.67,30.22,0000 0000 0000 0000 000000
2017-09-21 06:37:56,0.00,0.23,0.00,19.37,23.20,25.95,13.98,44.98,1010.83,2049.01,3451.00,3056.90,3498.96,599.99,599.88,30.27,0000 0000 0000 0000 000000
2017-09-21 06:42:56,-0.00,0.23,0.00,19.38,23.21,25.95,13.97,44.87,1010.91,2049.02,3451.00,3056.90,3498.93,600.06,600.12,30.32,0000 0000 0000 0000 000000
2017-09-21 06:47:58,0.00,0.23,0.00,19.39,23.21,25.95,14.01,44.93,1010.92,2049.01,3451.00,3056.98,3498.97,600.00,599.96,30.37,0000 0000 0000 0000 000000
2017-09-21 06:52:59,0.00,0.23,0.00,19.39,23.22,25.97,14.03,44.83,1011.02,2049.00,3451.00,3056.97,3498.93,600.09,600.13,30.42,0000 0000 0000 0000 000000
2017-09-21 06:58:00,-0.00,0.23,0.00,19.40,23.22,25.91,14.03,45.00,1011.10,2049.02,3451.00,3056.97,3498.88,599.94,600.15,30.47,0000 0000 0000 0000 000000
2017-09-21 07:03:01,0.00,0.23,0.00,19.39,23.22,25.91,13.97,44.92,1011.18,2049.01,3450.99,3056.98,3498.86,599.91,600.15,30.52,0000 0000 0000 0000 000000
2017-09-21 07:08:02,0.01,0.23,0.00,19.39,23.22,25.97,13.92,44.97,1011.23,2049.01,3450.98,3056.95,3498.43,599.82,600.00,30.57,0000 0000 0000 0000 000000
2017-09-21 07:13:04,0.01,0.23,0.00,19.40,23.22,25.93,14.00,45.13,1011.24,2049.00,3450.97,3056.79,3498.09,599.93,600.17,30.62,0000 0000 0000 0000 000000
2017-09-21 07:18:05,-0.00,0.23,0.00,19.42,23.22,25.94,13.93,44.93,1011.24,2049.00,3450.98,3056.89,3498.08,599.50,599.66,30.67,0000 0000 0000 0000 000000
2017-09-21 07:23:06,0.00,0.23,0.00,19.42,23.22,25.96,14.00,44.87,1011.25,2049.00,3450.94,3056.88,3498.03,600.05,600.24,30.72,0000 0000 0000 0000 000000
2017-09-21 07:28:07,-0.00,0.23,0.00,19.42,23.22,25.93,14.06,44.88,1011.25,2049.00,3450.94,3056.78,3498.01,600.26,600.46,30.77,0000 0000 0000 0000 000000
2017-09-21 07:33:08,-0.00,0.23,0.00,19.42,23.22,25.95,14.04,44.88,1011.26,2049.00,3450.94,3056.87,3498.01,599.96,600.11,30.82,0000 0000 0000 0000 000000
2017-09-21 07:38:09,0.00,0.23,0.00,19.42,23.23,25.93,13.97,44.79,1011.26,2049.00,3450.84,3056.92,3498.02,599.87,600.02,30.87,0000 0000 0000 0000 000000
2017-09-21 07:43:10,0.00,0.23,0.00,19.42,23.24,25.95,13.97,44.79,1011.26,2049.00,3450.74,3056.89,3498.00,600.11,600.48,30.92,0000 0000 0000 0000 000000
2017-09-21 07:48:12,0.01,0.23,0.00,19.42,23.24,25.94,13.97,44.98,1011.28,2049.00,3450.64,3056.83,3498.00,600.10,600.26,30.97,0000 0000 0000 0000 000000
2017-09-21 07:53:13,-0.00,0.23,0.00,19.42,23.24,25.91,13.96,44.92,1011.33,2049.00,3450.35,3056.82,3498.00,600.00,600.22,31.02,0000 0000 0000 0000 000000
2017-09-21 07:58:14,-0.00,0.23,0.00,19.42,23.24,25.92,13.97,44.96,1011.41,2049.00,3450.17,3056.82,3498.00,599.47,599.70,31.07,0000 0000 0000 0000 000000
2017-09-21 08:03:15,0.00,0.23,0.00,19.42,23.24,25.95,13.95,44.97,1011.54,2049.00,3450.09,3056.83,3498.00,599.71,600.04,31.12,0000 0000 0000 0000 000000
2017-09-21 08:08:16,0.00,0.23,0.00,19.42,23.24,25.94,14.01,44.89,1011.64,2049.00,3450.01,3056.71,3498.00,600.07,600.43,31.17,0000 0000 0000 0000 000000
2017-09-21 08:13:18,0.00,0.23,0.00,19.46,23.24,25.93,14.03,45.02,1011.69,2049.00,3450.01,3056.51,3497.99,600.15,600.49,31.22,0000 0000 0000 0000 000000
2017-09-21 08:18:19,-0.00,0.23,0.00,19.55,23.24,26.03,14.03,45.07,1011.71,2049.00,3450.01,3056.67,3497.98,600.04,600.07,31.27,0000 0000 0000 0000 000000
2017-09-21 08:23:20,0.00,0.23,0.00,19.65,23.24,26.08,13.98,45.05,1011.73,2049.00,3450.00,3056.57,3497.98,599.99,599.93,31.32,0000 0000 0000 0000 000000
2017-09-21 08:28:21,0.01,0.24,0.00,19.75,23.24,26.11,14.03,44.90,1011.73,2049.00,3449.99,3056.13,3497.89,599.76,599.44,31.37,0000 0000 0000 0000 000000
2017-09-21 08:33:22,0.01,0.24,0.00,19.82,23.25,26.10,13.99,44.84,1011.73,2049.00,3449.97,3056.05,3497.58,599.95,599.57,31.42,0000 0000 0000 0000 000000
2017-09-21 08:38:24,0.00,0.24,0.00,19.87,23.26,26.11,13.90,45.01,1011.74,2049.00,3449.93,3056.03,3497.28,599.89,599.34,31.47,0000 0000 0000 0000 000000
2017-09-21 08:43:25,0.00,0.24,0.00,19.87,23.27,26.11,13.99,44.83,1011.77,2048.99,3449.67,3056.01,3497.04,600.09,599.71,31.52,0000 0000 0000 0000 000000
2017-09-21 08:48:26,-0.00,0.24,0.00,19.80,23.27,26.11,13.97,44.89,1011.81,2048.99,3449.80,3056.01,3497.04,599.76,599.43,31.57,0000 0000 0000 0000 000000
2017-09-21 08:53:27,0.00,0.24,0.00,19.71,23.27,26.08,14.02,44.96,1011.99,2048.99,3449.67,3056.01,3497.04,600.00,600.07,31.62,0000 0000 0000 0000 000000
2017-09-21 08:58:29,0.00,0.24,0.00,19.64,23.29,26.08,13.94,45.04,1012.16,2048.99,3449.16,3056.01,3497.01,599.50,599.68,31.67,0000 0000 0000 0000 000000
2017-09-21 09:03:30,0.00,0.24,0.00,19.58,23.29,26.07,13.92,44.94,1012.20,2048.99,3449.10,3056.01,3497.00,599.71,600.04,31.72,0000 0000 0000 0000 000000
2017-09-21 09:08:31,0.00,0.24,0.00,19.54,23.29,26.08,13.99,44.87,1012.22,2048.98,3449.03,3056.00,3497.00,599.93,600.39,31.77,0000 0000 0000 0000 000000
2017-09-21 09:13:33,0.00,0.24,0.00,19.52,23.29,26.04,14.07,44.97,1012.22,2048.98,3449.05,3056.00,3497.00,599.72,600.28,31.82,0000 0000 0000 0000 000000
2017-09-21 09:18:34,0.00,0.24,0.00,19.50,23.29,25.99,13.90,44.77,1012.22,2048.97,3449.04,3056.00,3497.00,599.61,600.17,31.87,0000 0000 0000 0000 000000
2017-09-21 09:23:35,0.00,0.24,0.00,19.48,23.29,25.96,14.04,44.92,1012.22,2048.97,3449.04,3056.00,3496.99,599.98,600.58,31.92,0000 0000 0000 0000 000000
2017-09-21 09:28:36,-0.00,0.24,0.00,19.45,23.29,26.00,14.13,45.11,1012.22,2048.96,3449.03,3056.00,3496.99,600.06,600.60,31.97,0000 0000 0000 0000 000000
2017-09-21 09:33:37,0.00,0.24,0.00,19.44,23.29,25.97,14.04,45.06,1012.22,2048.95,3449.01,3056.00,3496.99,600.08,600.85,32.02,0000 0000 0000 0000 000000
2017-09-21 09:38:38,0.00,0.24,0.00,19.42,23.29,25.93,14.01,45.08,1012.23,2048.95,3449.02,3056.00,3496.99,600.28,601.08,32.07,0000 0000 0000 0000 000000
2017-09-21 09:43:40,0.00,0.24,0.00,19.41,23.28,25.90,13.97,44.95,1012.26,2048.93,3449.01,3056.00,3496.98,599.91,600.72,32.12,0000 0000 0000 0000 000000
2017-09-21 09:48:41,0.00,0.24,0.00,19.39,23.27,25.91,14.01,44.95,1012.38,2048.95,3449.01,3056.00,3496.99,599.73,600.63,32.17,0000 0000 0000 0000 000000
2017-09-21 09:53:42,0.00,0.24,0.00,19.38,23.27,25.91,14.02,44.91,1012.62,2048.98,3449.02,3056.02,3496.99,599.93,600.87,32.22,0000 0000 0000 0000 000000
2017-09-21 09:58:43,-0.00,0.24,0.00,19.36,23.27,25.87,14.04,44.98,1012.70,2048.95,3449.01,3056.01,3496.98,600.08,601.28,32.27,0000 0000 0000 0000 000000
2017-09-21 10:03:45,0.00,0.24,0.00,19.35,23.27,25.88,14.07,45.00,1012.71,2048.95,3449.00,3056.00,3496.98,599.90,601.01,32.33,0000 0000 0000 0000 000000
2017-09-21 10:08:46,0.00,0.24,0.00,19.34,23.25,25.83,14.07,44.97,1012.71,2048.96,3448.99,3056.00,3496.97,600.00,601.18,32.38,0000 0000 0000 0000 000000
2017-09-21 10:13:47,-0.00,0.24,0.00,19.33,23.25,25.85,14.01,44.96,1012.71,2048.95,3448.99,3056.01,3496.98,600.09,601.29,32.43,0000 0000 0000 0000 000000
2017-09-21 10:18:48,-0.00,0.24,0.00,19.32,23.24,25.83,14.07,44.96,1012.74,2048.97,3449.00,3056.04,3496.98,599.82,601.12,32.48,0000 0000 0000 0000 000000
2017-09-21 10:23:50,0.00,0.24,0.00,19.32,23.24,25.81,13.98,44.84,1012.73,2048.96,3449.00,3056.03,3496.98,599.94,601.16,32.53,0000 0000 0000 0000 000000
2017-09-21 10:28:51,-0.00,0.24,0.00,19.31,23.23,25.80,13.99,45.09,1012.73,2048.95,3449.01,3056.03,3496.99,600.24,601.49,32.58,0000 0000 0000 0000 000000
2017-09-21 10:33:52,-0.00,0.24,0.00,19.30,23.22,25.76,14.04,45.07,1012.75,2048.95,3449.01,3056.17,3496.99,600.15,601.47,32.63,0000 0000 0000 0000 000000
2017-09-21 10:38:53,0.01,0.24,0.00,19.27,23.22,25.79,14.10,45.05,1012.75,2048.97,3449.00,3056.18,3496.98,600.15,601.57,32.68,0000 0000 0000 0000 000000
2017-09-21 10:43:54,-0.00,0.24,0.00,19.27,23.20,25.80,13.97,45.07,1012.82,2048.97,3449.00,3056.30,3496.99,599.74,601.05,32.73,0000 0000 0000 0000 000000
2017-09-21 10:48:56,0.00,0.24,0.00,19.25,23.19,25.76,13.99,44.91,1013.00,2048.98,3449.00,3056.25,3496.98,599.87,601.33,32.78,0000 0000 0000 0000 000000
2017-09-21 10:53:57,-0.00,0.24,0.00,19.24,23.19,25.74,14.08,45.01,1013.15,2048.98,3449.00,3056.37,3496.98,600.30,601.91,32.83,0000 0000 0000 0000 000000
2017-09-21 10:58:58,-0.00,0.24,0.00,19.23,23.18,25.72,14.06,45.08,1013.19,2048.98,3449.00,3056.41,3496.98,600.16,601.77,32.88,0000 0000 0000 0000 000000
2017-09-21 11:03:59,-0.00,0.24,0.00,19.22,23.17,25.70,14.01,45.07,1013.20,2048.98,3448.99,3056.40,3496.99,599.74,601.53,32.93,0000 0000 0000 0000 000000
2017-09-21 11:09:00,-0.01,0.24,0.00,19.21,23.17,25.74,14.10,45.17,1013.20,2048.99,3448.98,3056.68,3496.98,600.13,601.93,32.98,0000 0000 0000 0000 000000
2017-09-21 11:14:02,-0.00,0.24,0.00,19.21,23.15,25.71,14.11,45.13,1013.20,2048.99,3448.99,3056.90,3496.99,600.24,602.00,33.03,0000 0000 0000 0000 000000
2017-09-21 11:19:03,0.00,0.24,0.00,19.18,23.14,25.70,14.06,45.12,1013.20,2048.99,3448.99,3056.91,3496.98,600.16,601.83,33.08,0000 0000 0000 0000 000000
2017-09-21 11:24:04,0.00,0.24,0.00,19.17,23.13,25.67,14.11,45.07,1013.21,2048.99,3448.98,3056.95,3496.99,600.15,602.01,33.13,0000 0000 0000 0000 000000
2017-09-21 11:29:06,0.00,0.24,0.00,19.15,23.12,25.70,13.98,45.13,1013.21,2048.99,3448.98,3056.97,3496.98,600.00,601.78,33.18,0000 0000 0000 0000 000000
2017-09-21 11:34:07,0.00,0.24,0.00,19.14,23.12,25.67,14.07,45.09,1013.21,2048.99,3448.98,3056.97,3496.99,600.03,601.88,33.24,0000 0000 0000 0000 000000
2017-09-21 11:39:08,0.00,0.24,0.00,19.12,23.10,25.61,14.05,45.05,1013.22,2048.99,3448.99,3056.98,3496.99,599.85,601.76,33.29,0000 0000 0000 0000 000000
2017-09-21 11:44:10,0.00,0.24,0.00,19.10,23.09,25.63,14.06,45.04,1013.23,2049.01,3448.99,3056.99,3496.99,600.24,602.31,33.34,0000 0000 0000 0000 000000
2017-09-21 11:49:11,0.00,0.24,0.00,19.09,23.08,25.59,14.03,44.97,1013.24,2049.02,3448.99,3056.99,3496.99,599.56,601.67,33.39,0000 0000 0000 0000 000000
2017-09-21 11:54:12,-0.00,0.24,0.00,19.08,23.07,25.55,14.03,45.11,1013.36,2049.02,3448.99,3056.99,3496.99,600.24,602.31,33.44,0000 0000 0000 0000 000000
2017-09-21 11:59:14,-0.00,0.24,0.00,19.05,23.05,25.58,14.02,45.25,1013.48,2049.03,3448.98,3057.00,3497.00,599.96,602.17,33.49,0000 0000 0000 0000 000000
2017-09-21 12:04:15,0.00,0.24,0.00,19.04,23.04,25.59,14.09,45.19,1013.59,2049.05,3448.98,3057.01,3497.00,599.95,602.28,33.54,0000 0000 0000 0000 000000
2017-09-21 12:09:16,0.00,0.24,0.00,19.03,23.03,25.53,14.04,45.16,1013.61,2049.10,3448.99,3057.01,3497.02,599.98,602.24,33.59,0000 0000 0000 0000 000000
2017-09-21 12:14:17,0.01,0.24,0.00,19.02,23.02,25.52,14.09,45.22,1013.67,2049.23,3448.99,3057.03,3497.03,600.06,602.46,33.64,0000 0000 0000 0000 000000
2017-09-21 12:19:18,0.01,0.24,0.00,19.00,23.00,25.52,14.08,45.12,1013.69,2049.38,3449.00,3057.15,3497.06,599.86,602.34,33.69,0000 0000 0000 0000 000000
2017-09-21 12:24:19,0.01,0.24,0.00,18.99,22.99,25.54,14.03,45.10,1013.69,2049.71,3449.01,3057.40,3497.13,599.84,602.46,33.74,0000 0000 0000 0000 000000
2017-09-21 12:29:20,0.01,0.24,0.00,18.97,22.98,25.49,14.12,45.09,1013.69,2049.85,3449.01,3057.66,3497.26,600.11,602.61,33.79,0000 0000 0000 0000 000000
2017-09-21 12:34:22,0.00,0.24,0.00,18.96,22.97,25.43,14.15,45.08,1013.70,2049.92,3449.01,3057.89,3497.51,600.08,602.63,33.84,0000 0000 0000 0000 000000
2017-09-21 12:39:23,-0.00,0.24,0.00,18.94,22.95,25.48,14.05,44.86,1013.70,2049.96,3449.06,3057.98,3497.89,599.92,602.56,33.89,0000 0000 0000 0000 000000
2017-09-21 12:44:25,-0.00,0.24,0.00,18.93,22.94,25.39,14.13,45.13,1013.71,2049.98,3449.02,3057.98,3497.91,600.22,602.87,33.94,0000 0000 0000 0000 000000
2017-09-21 12:49:26,-0.00,0.24,0.00,18.92,22.92,25.43,14.02,45.11,1013.72,2049.99,3449.13,3057.99,3497.96,599.97,602.53,33.99,0000 0000 0000 0000 000000
2017-09-21 12:54:27,-0.00,0.24,0.00,18.90,22.91,25.38,14.01,45.13,1013.72,2049.98,3449.29,3057.99,3497.98,599.94,602.51,34.04,0000 0000 0000 0000 000000